Vertical_Velocity
-1 -1 1 1 0 0 0 -0 -1 -0 0 0 -0 0 -0 0 2 -1 -1 -1 0 -0 0 1 -0 -0 0 1 1 3 1 -1 -1 -0 -1 -1 -1 -0 0 0 1 -1 -2 -1 -1
-0 -1 -1 -1 0 -1 -0 -0 -1 -1 -0 -1 -1 -1 0 -0 -0 0 -0 -1 -2 -0 0 1 1 -0 -1 0 1 1 0 4 2 -0 -1 -1 -1 -1 -1 -1 1 0 1 -1 -1
-2 -2 -2 -1 -1 -1 -2 -1 -1 -0 0 1 -1 -0 -2 -0 -1 -0 -0 -0 1 -0 -2 -0 1 0 0 -0 1 -0 0 -1 0 2 -1 -2 -1 -1 0 -0 -1 -1 -1 -1 -2
-1 -0 -2 -2 -2 -2 -2 -2 -1 0 -0 -1 -1 -1 -1 0 -1 -0 0 -1 -0 -0 -0 -0 1 1 0 -0 0 -1 1 1 -0 -1 2 1 -1 -1 -1 -1 -1 -1 0 1 -0
-3 -2 -0 0 -1 -1 -2 -2 -1 -1 -0 -2 -1 -2 -0 -1 -2 -1 -0 -1 -2 -0 -0 -1 0 2 0 -1 1 0 1 1 1 1 0 -1 -0 -1 2 -1 1 1 0 1 1
1 -1 1 1 0 -0 0 -1 -2 -0 -1 -1 -1 -1 -1 0 -1 -0 -1 -2 1 -0 -1 -2 -1 1 0 -1 -1 -0 0 -0 1 1 -0 -0 -2 0 1 1 2 2 1 1 0
-3 -0 0 0 -1 -2 -0 -0 -1 -0 -1 -0 -1 -2 -1 -1 -1 -1 -2 -1 -3 -1 -0 -0 -1 -2 1 1 -0 -2 -0 0 -0 -1 -2 -1 0 -2 -2 0 0 0 -1 -0 1
-0 -2 -2 -1 -0 -0 -1 -0 -2 -1 -0 -1 -2 -2 -2 -3 -1 -1 1 -2 -1 -0 -0 1 -1 3 0 -1 -0 -1 -0 -0 -2 -1 -1 -0 -2 -2 -0 1 -0 -1 -0 -0 -1
-0 1 -1 -1 -3 -1 -0 -1 -1 -0 -0 -2 -1 -1 -2 -3 -2 -0 -1 -0 -1 -2 -4 0 -1 -2 1 0 1 -1 -2 -2 -2 -1 -3 1 -3 -2 -0 -1 -2 -2 -1 -2 0
-3 -0 -0 -1 -1 -1 -2 1 0 -0 2 0 -1 -2 3 2 4 2 1 0 -2 -2 -3 0 -1 -3 -2 -2 -7 -3 -2 -3 -3 -5 -3 -2 -9 0 -0 -7 -2 -2 -4 -3 -1
-4 -4 -3 -1 -1 -1 -1 -2 -1 -4 4 2 -2 -3 -4 2 1 3 3 5 -0 1 -3 -3 -2 -5 5 1 -1 1 1 1 3 -2 -4 -1 -6 2 6 -8 -5 -1 -1 -2 -3
-1 -1 -0 1 1 -0 -0 -2 -2 -7 -4 -2 2 -2 -2 -2 -1 3 5 6 1 2 -1 -1 -11 4 -0 0 -1 -1 -0 -4 -0 -0 -2 -2 -15 -2 4 -1 -1 -2 -1 0 -4
1 -2 -2 -1 0 -1 -2 -2 -4 -6 -4 -4 -1 -2 0 2 -2 0 1 1 6 4 2 0 0 0 1 0 0 1 -0 2 1 1 -1 -2 -25 -9 -2 -5 -3 2 1 2 1
1 -2 0 1 3 1 -0 3 2 -4 -3 -12 -8 -15 -4 1 -3 1 -0 2 -2 -0 6 1 2 -0 1 0 1 2 1 2 1 3 -2 4 -13 -9 -3 -12 -9 -7 -2 -1 -3
1 -1 -0 -2 1 -2 3 2 1 0 -5 -5 -3 -3 -4 -1 -2 -4 -3 -4 0 0 -1 4 2 2 4 7 6 -3 2 -1 0 3 2 5 1 -49 -2 -9 -1 -2 -10 -7 -4
2 2 -2 0 -3 -1 -1 1 -0 6 -16 -1 0 1 3 1 0 -2 -2 -1 0 -3 -2 -5 1 1 -1 4 6 3 1 -1 -0 1 0 -2 8 -27 -8 0 -4 3 7 10 7
3 3 -2 4 2 -2 3 -1 2 2 0 -2 -3 -0 4 2 1 2 4 2 -1 -2 -3 -1 -8 -6 -4 -0 1 2 4 -3 -4 -1 -8 -1 5 -28 -8 -15 -5 -8 -8 -2 -3
0 2 4 2 2 2 2 5 8 0 -5 -1 -2 -2 0 4 2 1 -1 -2 -0 -1 2 1 -4 3 1 -1 -0 -1 -1 -7 -5 -3 -3 0 -7 -26 1 3 -4 -10 3 2 -2
1 -1 4 2 3 4 4 3 -8 -3 -3 -4 -1 -0 -3 1 3 2 -0 -4 0 1 -7 -3 -4 2 3 -2 8 -6 -3 6 7 1 5 -8 -8 -2 -8 -15 -12 -3 3 10 8
-2 -2 0 6 3 3 8 -1 0 -8 -3 0 -3 2 -3 -1 4 -0 -0 1 -2 -3 8 6 2 -2 -5 2 2 4 3 -2 1 -3 -1 -1 -0 -11 -4 1 5 2 -1 4 -5
1 -0 -1 5 7 5 -9 -4 -5 -0 -3 4 2 1 0 -2 2 -3 3 -0 -0 -2 -0 -0 5 -1 6 -10 -7 1 -5 -4 1 0 -3 -0 -11 -6 -0 -7 -6 0 1 -8 0
2 2 1 8 5 1 1 -3 -0 -6 1 2 -1 2 -0 1 -3 1 -3 1 1 5 1 7 7 -1 -8 5 2 -1 6 12 10 -6 1 4 -60 -4 5 3 0 -1 0 2 -4
-1 -3 -0 3 -1 2 7 -3 2 5 1 -3 1 -5 1 6 3 -6 -2 1 -0 1 2 -2 0 1 4 6 1 -1 0 6 6 12 -8 4 -41 -5 -3 1 -4 1 8 -3 -3
0 1 -1 11 0 5 5 2 3 0 -1 1 -4 4 3 -8 -4 -6 -7 -2 2 2 -1 5 -2 -1 -13 8 2 5 3 3 12 15 -8 -24 -36 37 2 0 8 1 1 4 2
9 -1 3 3 15 10 7 12 11 8 12 11 15 14 2 8 1 -9 7 4 1 -3 1 3 -15 11 -1 9 3 3 1 5 1 -8 9 -35 -16 45 -11 -0 1 3 -0 1 -1
0 1 4 5 5 3 3 4 3 4 4 5 5 5 4 3 7 5 1 5 1 9 9 10 -10 3 -21 11 1 -15 15 2 -2 -8 -4 2 -41 24 7 -1 -3 -2 1 1 -1
1 -2 2 1 3 -1 2 6 6 -2 -0 -1 -0 1 1 1 -0 -2 3 -0 -0 -7 -1 -3 -0 0 -5 -6 -5 -14 -1 -0 9 11 3 13 10 13 -6 -6 2 -1 -2 1 3
Height
3161 3161 3160 3161 3161 3160 3161 3161 3160 3160 3159 3158 3158 3157 3156 3155 3155 3154 3153 3154 3153 3153 3153 3153 3154 3154 3154 3154 3155 3155 3155 3154 3154 3155 3156 3156 3157 3157 3157 3156 3156 3157 3157 3158 3158
3158 3159 3159 3159 3159 3159 3158 3159 3159 3159 3158 3158 3158 3156 3155 3155 3154 3154 3153 3152 3152 3152 3153 3153 3153 3153 3154 3154 3155 3155 3155 3154 3153 3153 3154 3155 3155 3155 3156 3155 3155 3155 3155 3155 3155
3155 3156 3157 3157 3157 3157 3156 3156 3157 3157 3157 3157 3156 3156 3155 3155 3154 3153 3152 3151 3151 3152 3151 3151 3152 3152 3153 3153 3154 3154 3153 3153 3153 3153 3153 3153 3153 3153 3153 3153 3153 3153 3153 3153 3153
3152 3153 3154 3155 3155 3155 3155 3154 3154 3155 3155 3155 3155 3154 3154 3154 3155 3152 3151 3150 3150 3151 3151 3150 3150 3151 3151 3151 3152 3153 3153 3152 3152 3152 3152 3152 3151 3150 3149 3151 3150 3150 3150 3151 3151
3149 3150 3151 3152 3153 3153 3153 3153 3152 3153 3153 3153 3153 3153 3153 3152 3152 3151 3150 3149 3149 3149 3149 3149 3148 3149 3149 3149 3150 3150 3151 3151 3151 3151 3151 3150 3148 3147 3147 3146 3146 3147 3148 3149 3149
3145 3146 3147 3149 3149 3150 3150 3150 3150 3150 3150 3150 3150 3150 3150 3150 3149 3149 3148 3148 3147 3147 3147 3146 3146 3146 3147 3147 3148 3148 3148 3149 3149 3148 3148 3147 3146 3144 3145 3143 3144 3145 3145 3145 3146
3141 3141 3142 3144 3145 3147 3147 3147 3147 3147 3147 3147 3148 3148 3148 3148 3146 3146 3146 3145 3146 3145 3145 3144 3144 3144 3144 3145 3145 3146 3147 3146 3146 3146 3145 3144 3143 3141 3141 3142 3143 3143 3143 3143 3143
3135 3137 3138 3138 3140 3142 3143 3143 3143 3143 3143 3143 3144 3144 3144 3144 3143 3143 3143 3143 3143 3143 3143 3142 3141 3142 3142 3143 3144 3144 3145 3144 3144 3143 3143 3143 3141 3139 3139 3139 3140 3140 3140 3140 3140
3129 3130 3132 3133 3134 3136 3137 3139 3139 3139 3139 3140 3140 3140 3141 3140 3140 3140 3141 3141 3141 3141 3141 3140 3140 3140 3141 3141 3142 3141 3141 3141 3142 3141 3140 3140 3138 3138 3137 3137 3137 3137 3136 3136 3137
3124 3125 3126 3128 3131 3132 3133 3133 3133 3133 3134 3135 3135 3139 3136 3137 3136 3136 3137 3137 3137 3138 3138 3138 3137 3137 3137 3138 3138 3138 3139 3138 3138 3139 3137 3136 3134 3137 3136 3133 3133 3133 3132 3132 3133
3117 3119 3121 3123 3125 3127 3129 3130 3132 3131 3129 3130 3130 3130 3131 3131 3132 3132 3133 3133 3133 3133 3134 3134 3134 3132 3134 3134 3135 3135 3135 3135 3135 3134 3133 3132 3129 3132 3132 3130 3129 3129 3128 3128 3128
3111 3112 3115 3117 3119 3121 3122 3124 3125 3126 3124 3124 3124 3125 3125 3126 3125 3127 3128 3129 3128 3128 3128 3130 3127 3130 3130 3130 3131 3131 3131 3130 3132 3130 3129 3126 3124 3126 3126 3126 3125 3124 3123 3122 3123
3104 3106 3108 3110 3113 3115 3116 3118 3119 3119 3119 3118 3118 3119 3120 3120 3119 3120 3121 3121 3122 3122 3123 3123 3124 3124 3125 3125 3127 3127 3127 3127 3128 3126 3125 3122 3118 3119 3120 3121 3120 3119 3118 3117 3118
3097 3100 3104 3105 3109 3109 3110 3112 3113 3113 3112 3112 3112 3112 3112 3112 3112 3111 3113 3117 3117 3118 3120 3119 3118 3119 3120 3120 3123 3123 3124 3124 3123 3124 3122 3119 3115 3111 3114 3114 3114 3115 3112 3111 3112
3088 3092 3097 3100 3102 3104 3106 3107 3108 3111 3110 3106 3103 3104 3105 3108 3107 3107 3109 3109 3111 3113 3117 3116 3115 3116 3115 3116 3118 3118 3119 3120 3120 3119 3117 3113 3115 3104 3105 3104 3106 3106 3106 3107 3108
3080 3084 3088 3093 3096 3100 3101 3103 3106 3110 3099 3098 3097 3098 3100 3100 3102 3103 3105 3106 3108 3109 3110 3111 3113 3114 3115 3114 3114 3114 3116 3116 3115 3115 3112 3107 3108 3100 3101 3101 3102 3102 3104 3104 3103
3073 3077 3080 3084 3090 3093 3096 3099 3104 3097 3094 3093 3094 3095 3095 3096 3096 3098 3100 3101 3103 3104 3104 3105 3107 3109 3111 3113 3113 3113 3115 3115 3114 3111 3101 3099 3097 3087 3094 3097 3098 3099 3099 3097 3097
3065 3070 3073 3077 3081 3086 3089 3094 3090 3086 3088 3089 3089 3092 3093 3094 3094 3094 3096 3097 3097 3099 3100 3100 3100 3101 3101 3103 3106 3107 3110 3112 3112 3109 3098 3096 3086 3082 3089 3092 3093 3093 3090 3090 3091
3057 3062 3066 3071 3074 3078 3082 3079 3075 3079 3084 3087 3089 3088 3089 3091 3092 3091 3091 3092 3094 3095 3098 3095 3094 3095 3096 3097 3102 3101 3101 3104 3103 3098 3094 3082 3074 3074 3081 3083 3083 3082 3083 3085 3085
3049 3054 3061 3064 3067 3071 3073 3064 3069 3075 3079 3081 3082 3084 3083 3087 3089 3089 3088 3088 3089 3092 3093 3090 3089 3088 3091 3093 3095 3095 3097 3099 3099 3098 3089 3068 3067 3068 3073 3075 3078 3078 3080 3082 3082
3040 3045 3050 3055 3059 3062 3055 3058 3061 3067 3073 3077 3076 3076 3077 3081 3083 3083 3083 3084 3085 3087 3088 3087 3087 3084 3083 3082 3084 3088 3087 3091 3092 3088 3083 3071 3057 3064 3067 3070 3072 3075 3076 3077 3077
3031 3036 3040 3046 3051 3047 3046 3050 3056 3058 3065 3067 3068 3069 3071 3074 3075 3077 3077 3081 3081 3082 3083 3083 3078 3073 3075 3076 3078 3080 3079 3081 3082 3079 3075 3073 3042 3060 3063 3064 3065 3068 3068 3070 3071
3023 3028 3032 3037 3037 3037 3041 3045 3049 3050 3056 3057 3059 3060 3065 3066 3069 3068 3070 3074 3074 3075 3075 3076 3073 3069 3064 3067 3069 3067 3067 3072 3072 3072 3061 3072 3035 3055 3058 3060 3061 3061 3060 3060 3061
3019 3023 3026 3028 3028 3031 3034 3038 3040 3041 3044 3046 3049 3053 3054 3056 3060 3057 3061 3065 3065 3066 3069 3069 3065 3063 3056 3061 3060 3060 3060 3064 3067 3061 3058 3044 3050 3048 3055 3055 3054 3053 3051 3050 3050
3015 3017 3019 3020 3022 3024 3027 3028 3030 3032 3033 3034 3037 3039 3041 3046 3049 3049 3051 3053 3054 3055 3058 3061 3052 3057 3048 3054 3053 3049 3050 3054 3054 3052 3054 3032 3049 3038 3047 3043 3041 3039 3039 3038 3037
3013 3015 3016 3016 3017 3019 3020 3022 3024 3025 3027 3029 3031 3032 3033 3037 3038 3037 3038 3039 3041 3040 3045 3046 3043 3044 3036 3042 3043 3039 3038 3039 3041 3041 3039 3034 3023 3041 3034 3029 3025 3026 3027 3025 3024
3009 3012 3013 3013 3016 3017 3018 3019 3020 3021 3025 3026 3028 3029 3030 3031 3031 3033 3032 3035 3035 3037 3037 3038 3037 3037 3034 3033 3035 3031 3027 3029 3031 3029 3027 3025 3026 3018 3018 3018 3018 3017 3015 3013 3013